Regional Weather Roundup
Issued by NWS Little Rock, AR

Home | Current Version | Previous Version | Graphics & Text | Print | Product List | Glossary On
Versions: 1 2 3 4 5 6 7 8 9 10 11 12 13 14 15 16 17 18 19 20 21 22 23 24 25 26 27 28 29 30 31 32
000
ASUS44 KLZK 232005
RWRLZK

WEATHER ROUNDUP FOR ARKANSAS
NATIONAL WEATHER SERVICE LITTLE ROCK AR
300 PM CDT FRI SEP 23 2016

NOTE: "FAIR" INDICATES FEW OR NO CLOUDS BELOW 12,000 FEET WITH NO
SIGNIFICANT WEATHER AND/OR OBSTRUCTIONS TO VISIBILITY.

ARZ001-003-010-029-232100-
NORTHWEST ARKANSAS

CITY           SKY/WX    TMP DP  RH WIND       PRES   REMARKS
FAYETTEVILLE   SUNNY     86  63  45 SE5       30.04F HX  87
FORT SMITH     MOSUNNY   90  62  39 E5        29.98F HX  90
HARRISON       MOSUNNY   87  66  49 VRB5      30.05F HX  89
BENTONVILLE    SUNNY     88  61  40 CALM      30.05F HX  88
ROGERS         SUNNY     85  62  46 E9        30.05F HX  85
SILOAM SPGS    SUNNY     90  61  37 SW3         N/A  HX  89
HIGHFILL       SUNNY     88  65  46 S5        30.03F HX  90
SPRINGDALE     MOSUNNY   86  63  45 S7        30.05F HX  87
$$

ARZ004-005-016-232100-
NORTH CENTRAL ARKANSAS

CITY           SKY/WX    TMP DP  RH WIND       PRES   REMARKS
BATESVILLE     SUNNY     90  68  48 W6        30.02F HX  93
FLIPPIN        MOSUNNY   88  63  42 E3        30.02F HX  88
MTN HOME       MOSUNNY   86  66  51 NW3       30.04F HX  88
$$

ARZ040-041-232100-
WEST CENTRAL ARKANSAS

CITY           SKY/WX    TMP DP  RH WIND       PRES   REMARKS
MENA           MOSUNNY   90  73  58 CALM      30.03F HX  98
MOUNT IDA      MOSUNNY   89  71  55 VRB3      30.00F HX  95
$$

ARZ009-017-025-026-028-232100-
NORTHEAST ARKANSAS

CITY           SKY/WX    TMP DP  RH WIND       PRES   REMARKS
CORNING          N/A     90  68  48 CALM      30.02F HX  93
JONESBORO      PTSUNNY   94  65  38 CALM      30.01F HX  96
NEWPORT        MOSUNNY   91  66  43 VRB6      30.01F HX  93
WALNUT RIDGE   MOSUNNY   91  64  40 SW7       30.01F HX  93
BLYTHEVILLE    SUNNY     96  66  37 VRB5      30.01F HX  99
NW BLYTHEVILLE SUNNY     93  64  38 W6        30.01F HX  95
$$

ARZ022-023-033-042-044-232100-
CENTRAL ARKANSAS

CITY           SKY/WX    TMP DP  RH WIND       PRES   REMARKS
LITTLE ROCK    MOSUNNY   93  67  42 SE6       30.00F HX  96
N LITTLE ROCK    N/A     90  67  47 S5        29.98F HX  93
JACKSONVILLE   MOSUNNY   91  68  46 VRB5      30.00F HX  95
SEARCY         MOSUNNY   92  72  51 S7        30.03F HX  99
HOT SPRINGS    CLOUDY    88  70  55 CALM      30.02F HX  93
RUSSELLVILLE   SUNNY     89  64  43 W5        30.00F HAZE    HX  90
$$

ARZ036-232100-
EAST ARKANSAS

CITY           SKY/WX    TMP DP  RH WIND       PRES   REMARKS
WEST MEMPHIS   MOSUNNY   90  64  42 CALM      30.00F HX  91
$$

ARZ050-053-066-070-073-232100-
SOUTHWEST ARKANSAS

CITY           SKY/WX    TMP DP  RH WIND       PRES   REMARKS
ARKADELPHIA    FAIR      91  75  59 VRB5      30.00F HX 101
TEXARKANA      SUNNY     91  70  49 S9        29.99F HX  96
EL DORADO      MOSUNNY   90  71  53 SW6       30.00F HX  96
DE QUEEN       MOSUNNY   89  74  60 SE5       29.97F HX  98
$$

ARZ056-057-069-232100-
SOUTHEAST ARKANSAS

CITY           SKY/WX    TMP DP  RH WIND       PRES   REMARKS
PINE BLUFF     PTSUNNY   92  69  47 W6        30.00F HX  97
STUTTGART      MOSUNNY   93  64  38 SE5       30.01F HX  95
MONTICELLO     SUNNY     91  70  49 SW6       30.00F HX  96

$$






USA.gov is the U.S. government's official web portal to all federal, state and local government web resources and services.